• In Uzbekistan
  • List of Countries
  • For 7 days
  • Water Temperature
  • Satellite Maps
  • Weather Map
  • Weather Widgets
  • user-avatar
    Login

    Hourly Weather Satif

    Today, 28 May, Monday

    Time Temperature Precipitation Wind Pressure Humidity
    00:00 +18°C° 0.1 mm 3 mps 672 mmHg 80%
    01:00 +17°C° 0.1 mm 3 mps 671 mmHg 83%
    02:00 +17°C° 0.1 mm 3 mps 671 mmHg 85%
    03:00 +16°C° 0.1 mm 3 mps 671 mmHg 87%
    04:00 +16°C° 0.1 mm 3 mps 671 mmHg 85%
    05:00 +16°C° 0.1 mm 3 mps 671 mmHg 84%
    06:00 +17°C° 0.1 mm 4 mps 671 mmHg 82%
    07:00 +18°C° 0 mm 4 mps 671 mmHg 75%
    08:00 +20°C° 0 mm 4 mps 671 mmHg 67%
    09:00 +21°C° 0 mm 4 mps 671 mmHg 60%
    10:00 +22°C° 0 mm 3 mps 671 mmHg 55%
    11:00 +25°C° 0 mm 3 mps 671 mmHg 49%
    12:00 +26°C° 0 mm 3 mps 671 mmHg 44%
    13:00 +27°C° 0 mm 4 mps 671 mmHg 44%
    14:00 +27°C° 0 mm 4 mps 671 mmHg 44%
    15:00 +27°C° 0 mm 5 mps 671 mmHg 44%
    16:00 +26°C° 0 mm 5 mps 671 mmHg 50%
    17:00 +25°C° 0 mm 4 mps 671 mmHg 56%
    18:00 +22°C° 0 mm 4 mps 670 mmHg 62%
    19:00 +21°C° 0 mm 4 mps 671 mmHg 69%
    20:00 +20°C° 0 mm 4 mps 671 mmHg 76%
    21:00 +18°C° 0 mm 3 mps 671 mmHg 83%
    22:00 +18°C° 0 mm 3 mps 671 mmHg 84%
    23:00 +17°C° 0 mm 3 mps 671 mmHg 85%

    Tomorrow, 29 May, Tuesday

    Time Temperature Precipitation Wind Pressure Humidity
    00:00 +17°C° 0 mm 3 mps 671 mmHg 85%
    01:00 +17°C° 0 mm 3 mps 671 mmHg 86%
    02:00 +16°C° 0 mm 3 mps 671 mmHg 86%
    03:00 +16°C° 0 mm 3 mps 670 mmHg 87%
    04:00 +16°C° 0 mm 2 mps 670 mmHg 85%
    05:00 +16°C° 0 mm 2 mps 670 mmHg 84%
    06:00 +16°C° 0 mm 2 mps 670 mmHg 83%
    07:00 +17°C° 0 mm 2 mps 671 mmHg 78%
    08:00 +18°C° 0 mm 2 mps 671 mmHg 73%
    09:00 +19°C° 0 mm 2 mps 671 mmHg 68%
    10:00 +20°C° 0 mm 2 mps 671 mmHg 64%
    11:00 +21°C° 0 mm 3 mps 671 mmHg 60%
    12:00 +22°C° 0 mm 3 mps 671 mmHg 56%
    13:00 +24°C° 0 mm 3 mps 671 mmHg 55%
    14:00 +24°C° 0 mm 3 mps 671 mmHg 55%
    15:00 +24°C° 0 mm 3 mps 671 mmHg 54%
    16:00 +22°C° 0.3 mm 3 mps 671 mmHg 59%
    17:00 +21°C° 0.3 mm 3 mps 670 mmHg 64%
    18:00 +20°C° 0.3 mm 4 mps 670 mmHg 69%
    19:00 +19°C° 0.2 mm 3 mps 670 mmHg 74%
    20:00 +18°C° 0.2 mm 3 mps 671 mmHg 78%
    21:00 +17°C° 0.2 mm 2 mps 671 mmHg 82%
    22:00 +17°C° 0 mm 2 mps 671 mmHg 84%
    23:00 +16°C° 0 mm 2 mps 670 mmHg 85%

    Day after tomorrow, 30 May, Wednesday

    Time Temperature Precipitation Wind Pressure Humidity
    00:00 +16°C° 0 mm 2 mps 670 mmHg 86%
    01:00 +15°C° 0 mm 2 mps 670 mmHg 86%
    02:00 +15°C° 0 mm 2 mps 670 mmHg 86%
    03:00 +15°C° 0 mm 2 mps 669 mmHg 86%
    04:00 +15°C° 0 mm 2 mps 670 mmHg 83%
    05:00 +16°C° 0 mm 2 mps 670 mmHg 80%
    06:00 +16°C° 0 mm 2 mps 670 mmHg 76%
    07:00 +17°C° 0 mm 2 mps 671 mmHg 68%
    08:00 +19°C° 0 mm 2 mps 672 mmHg 59%
    09:00 +21°C° 0 mm 2 mps 672 mmHg 50%
    10:00 +22°C° 0 mm 3 mps 672 mmHg 47%
    11:00 +24°C° 0 mm 3 mps 672 mmHg 44%
    12:00 +26°C° 0 mm 3 mps 673 mmHg 41%
    13:00 +26°C° 0.5 mm 3 mps 672 mmHg 42%
    14:00 +26°C° 0.5 mm 3 mps 672 mmHg 43%
    15:00 +26°C° 0.5 mm 3 mps 672 mmHg 44%
    16:00 +23°C° 1 mm 4 mps 671 mmHg 53%
    17:00 +21°C° 1 mm 4 mps 671 mmHg 62%
    18:00 +19°C° 1 mm 5 mps 671 mmHg 71%
    19:00 +18°C° 1.9 mm 4 mps 671 mmHg 75%
    20:00 +17°C° 1.9 mm 4 mps 672 mmHg 79%
    21:00 +16°C° 1.9 mm 3 mps 672 mmHg 83%
    22:00 +16°C° 0.7 mm 3 mps 672 mmHg 84%
    23:00 +16°C° 0.7 mm 2 mps 672 mmHg 84%

    31 May, Thursday

    Time Temperature Precipitation Wind Pressure Humidity
    00:00 +15°C° 0.7 mm 2 mps 672 mmHg 84%
    01:00 +15°C° 0.9 mm 2 mps 672 mmHg 84%
    02:00 +15°C° 0.9 mm 2 mps 672 mmHg 84%
    03:00 +15°C° 0.9 mm 1 mps 672 mmHg 83%
    04:00 +15°C° 0.1 mm 1 mps 672 mmHg 81%
    05:00 +16°C° 0.1 mm 1 mps 672 mmHg 79%
    06:00 +16°C° 0.1 mm 1 mps 672 mmHg 77%
    07:00 +19°C° 0 mm 1 mps 673 mmHg 71%
    08:00 +19°C° 0 mm 2 mps 673 mmHg 65%
    09:00 +20°C° 0 mm 2 mps 674 mmHg 60%
    10:00 +21°C° 0 mm 2 mps 674 mmHg 56%
    11:00 +23°C° 0 mm 2 mps 674 mmHg 53%
    12:00 +24°C° 0 mm 2 mps 674 mmHg 50%
    13:00 +24°C° 0.1 mm 3 mps 674 mmHg 50%
    14:00 +23°C° 0.1 mm 4 mps 674 mmHg 50%
    15:00 +23°C° 0.1 mm 4 mps 674 mmHg 51%
    16:00 +22°C° 0.2 mm 4 mps 673 mmHg 55%
    17:00 +20°C° 0.2 mm 4 mps 673 mmHg 60%
    18:00 +19°C° 0.2 mm 3 mps 673 mmHg 65%
    19:00 +18°C° 0 mm 3 mps 673 mmHg 68%
    20:00 +17°C° 0 mm 2 mps 674 mmHg 71%
    21:00 +16°C° 0 mm 2 mps 674 mmHg 74%
    22:00 +16°C° 0 mm 2 mps 674 mmHg 74%
    23:00 +16°C° 0 mm 1 mps 673 mmHg 75%

    1 June, Friday

    Time Temperature Precipitation Wind Pressure Humidity
    00:00 +16°C° 0 mm 1 mps 673 mmHg 75%
    01:00 +15°C° 0 mm 1 mps 673 mmHg 76%
    02:00 +15°C° 0 mm 1 mps 673 mmHg 76%
    03:00 +15°C° 0 mm 1 mps 673 mmHg 77%
    04:00 +15°C° 0 mm 1 mps 673 mmHg 75%
    05:00 +16°C° 0 mm 1 mps 673 mmHg 73%
    06:00 +18°C° 0 mm 1 mps 674 mmHg 71%
    07:00 +19°C° 0 mm 1 mps 674 mmHg 64%
    08:00 +21°C° 0 mm 1 mps 675 mmHg 56%
    09:00 +22°C° 0 mm 1 mps 675 mmHg 49%
    10:00 +23°C° 0 mm 1 mps 675 mmHg 44%
    11:00 +24°C° 0 mm 2 mps 675 mmHg 40%
    12:00 +26°C° 0 mm 2 mps 675 mmHg 35%
    13:00 +26°C° 0 mm 3 mps 675 mmHg 35%
    14:00 +26°C° 0 mm 3 mps 675 mmHg 35%
    15:00 +26°C° 0 mm 3 mps 675 mmHg 34%
    16:00 +25°C° 0 mm 3 mps 674 mmHg 39%
    17:00 +24°C° 0 mm 3 mps 674 mmHg 43%
    18:00 +23°C° 0 mm 2 mps 674 mmHg 47%
    19:00 +21°C° 0 mm 2 mps 674 mmHg 54%
    20:00 +20°C° 0 mm 2 mps 674 mmHg 60%
    21:00 +19°C° 0 mm 2 mps 674 mmHg 66%
    22:00 +19°C° 0 mm 2 mps 674 mmHg 67%
    23:00 +20°C° 0 mm 1 mps 674 mmHg 68%

    2 June, Saturday

    Time Temperature Precipitation Wind Pressure Humidity
    00:00 +20°C° 0 mm 1 mps 674 mmHg 69%
    01:00 +20°C° 0 mm 1 mps 673 mmHg 70%
    02:00 +19°C° 0 mm 1 mps 673 mmHg 71%
    03:00 +19°C° 0 mm 1 mps 673 mmHg 72%
    04:00 +20°C° 0 mm 1 mps 673 mmHg 70%
    05:00 +20°C° 0 mm 1 mps 673 mmHg 68%
    06:00 +21°C° 0 mm 1 mps 674 mmHg 66%
    07:00 +23°C° 0 mm 1 mps 674 mmHg 58%
    08:00 +24°C° 0 mm 2 mps 674 mmHg 50%
    09:00 +26°C° 0 mm 2 mps 675 mmHg 43%
    10:00 +27°C° 0 mm 2 mps 675 mmHg 40%
    11:00 +27°C° 0 mm 2 mps 675 mmHg 37%
    12:00 +28°C° 0 mm 3 mps 675 mmHg 34%
    13:00 +29°C° 0 mm 3 mps 674 mmHg 34%
    14:00 +29°C° 0 mm 3 mps 674 mmHg 34%
    15:00 +29°C° 0 mm 3 mps 674 mmHg 34%
    16:00 +28°C° 0 mm 3 mps 674 mmHg 39%
    17:00 +27°C° 0 mm 3 mps 674 mmHg 43%
    18:00 +26°C° 0 mm 3 mps 674 mmHg 48%
    19:00 +25°C° 0 mm 2 mps 673 mmHg 53%
    20:00 +24°C° 0 mm 2 mps 673 mmHg 58%
    21:00 +23°C° 0 mm 2 mps 673 mmHg 63%
    22:00 +21°C° 0.1 mm 2 mps 673 mmHg 65%
    23:00 +21°C° 0.1 mm 2 mps 673 mmHg 67%
    Show more